Ashland, WI

10:37 AM CDT on June 25, 2017 (GMT -0500)
Kennedy Memorial

Weather History for KASX - May, 2014

Change the Weather History Date:

Sunday, May 11, 2014

  Actual Average Record
Temperature  
Mean Temperature 51 °F -  
Max Temperature 64 °F 65 °F 85 °F (1991)
Min Temperature 39 °F 39 °F 20 °F (1963)
Degree Days  
Heating Degree Days 14    
Growing Degree Days 1 (Base 50)    
Moisture  
Dew Point 39 °F    
Average Humidity 69    
Maximum Humidity 86    
Minimum Humidity 54    
Precipitation  
Precipitation 0.00 in - - ()
Sea Level Pressure  
Sea Level Pressure 29.94 in    
Wind  
Wind Speed 6 mph (NNE)    
Max Wind Speed 15 mph    
Max Gust Speed -    
Visibility 10 miles    
Events      
Averages and records for this station are not official NWS values.
T = Trace of Precipitation, MM = Missing Value Source: NWS Daily Summary

Daily Weather History Graph

Daily Weather History Graph

Search for Another Location

Airport or City:

Trip Planner

Search our weather history database for the weather conditions in past years. The results will help you decide how hot, cold, wet, or windy it might be!

Date:

Astronomy

May. 11, 2014 Rise Set
Actual Time 5:34 AM CDT 8:26 PM CDT
Civil Twilight 4:59 AM CDT 9:01 PM CDT
Nautical Twilight 4:15 AM CDT 9:46 PM CDT
Astronomical Twilight 3:22 AM CDT 10:39 PM CDT
Moon 5:11 PM CDT (5/11) 3:53 AM CDT (5/11)
Length of Visible Light 16h 01m
Length of Day
14h 51m
Waxing Gibbous, 89% of the Moon is Illuminated
May 11
Waxing Gibbous
May 14
Full
May 21
Last Quarter
May 28
New
Jun 5
First Quarter

Hourly Weather History & Observations

Time (CDT) Temp. Windchill Dew Point Humidity Pressure Visibility Wind Dir Wind Speed Gust Speed Precip Events Conditions
1:53 AM 46.0 °F 44.8 °F 33.1 °F 61% 29.89 in 10.0 mi WSW 3.5 mph - N/A   Mostly Cloudy
2:53 AM 46.0 °F - 37.0 °F 71% 29.89 in 10.0 mi Calm Calm - N/A   Mostly Cloudy
3:53 AM 46.9 °F - 37.0 °F 68% 29.90 in 10.0 mi West 3.5 mph - N/A   Overcast
4:53 AM 46.0 °F - 37.0 °F 71% 29.90 in 10.0 mi Calm Calm - N/A   Overcast
5:53 AM 44.1 °F - 37.0 °F 76% 29.92 in 10.0 mi Calm Calm - N/A   Mostly Cloudy
6:53 AM 48.9 °F - 33.1 °F 54% 29.92 in 10.0 mi ENE 4.6 mph - N/A   Mostly Cloudy
7:53 AM 50.0 °F - 42.1 °F 74% 29.94 in 10.0 mi North 4.6 mph - 0.00 in   Scattered Clouds
8:53 AM 55.0 °F - 42.1 °F 62% 29.94 in 10.0 mi North 8.1 mph - N/A   Partly Cloudy
9:53 AM 55.9 °F - 43.0 °F 62% 29.96 in 10.0 mi North 5.8 mph - N/A   Scattered Clouds
10:53 AM 63.0 °F - 48.9 °F 60% 29.94 in 10.0 mi NNE 8.1 mph - N/A   Clear
11:53 AM 61.0 °F - 48.9 °F 64% 29.95 in 10.0 mi North 15.0 mph - N/A   Clear
12:53 PM 63.0 °F - 46.0 °F 54% 29.95 in 10.0 mi NNE 11.5 mph - N/A   Clear
1:53 PM 61.0 °F - 46.0 °F 58% 29.95 in 10.0 mi NE 13.8 mph - N/A   Clear
2:53 PM 60.1 °F - 46.9 °F 62% 29.95 in 10.0 mi NE 11.5 mph - N/A   Clear
3:53 PM 46.9 °F - 39.9 °F 77% 29.97 in 10.0 mi North 10.4 mph - N/A   Clear
4:53 PM 44.1 °F 39.0 °F 36.0 °F 73% 29.97 in 10.0 mi North 9.2 mph - N/A   Partly Cloudy
5:53 PM 43.0 °F 37.7 °F 35.1 °F 74% 29.97 in 10.0 mi NNE 9.2 mph - N/A   Overcast
6:53 PM 39.9 °F 33.4 °F 34.0 °F 79% 29.97 in 10.0 mi North 10.4 mph - N/A   Overcast
7:53 PM 41.0 °F 34.7 °F 33.1 °F 73% 29.94 in 10.0 mi NNE 10.4 mph - N/A   Partly Cloudy
8:53 PM 42.1 °F 36.6 °F 33.1 °F 70% 29.94 in 10.0 mi NE 9.2 mph - N/A   Mostly Cloudy
9:53 PM 41.0 °F 35.8 °F 34.0 °F 76% 29.96 in 10.0 mi NNE 8.1 mph - N/A   Clear
10:53 PM 41.0 °F 37.1 °F 35.1 °F 79% 29.94 in 10.0 mi NNE 5.8 mph - N/A   Mostly Cloudy
11:53 PM 39.0 °F 33.4 °F 35.1 °F 86% 29.91 in 10.0 mi NNE 8.1 mph - N/A   Clear